Zurück zum Katalog

STARLINK-37248

AktivKommunikationVLEO
NORAD 68527·PAYLOAD·🇺🇸 United States

Gestartet Mar 30, 2026 von Cape Canaveral Space Force Station

Loading…

Nächste Überflüge (nächste 24 Stunden)

TLE

AktuellSource: CelesTrak SupGP

Epoche: Sep 14, 2026, 20:59 UTC

1 68527C 26068V   26257.87479167 -.00016272  00000+0 -48085-3 0  2575
2 68527  53.1580 323.7888 0001145  85.2448 287.8810 15.34393105    12

Verfolge STARLINK-37248 in Echtzeit mit AllMySat

Download on the App Store